[[{"header":{"parameterUnit":"m.s-1","parameterCategory":1,"la1":30.2991,"la2":30.254,"lo1":-89.0895,"lo2":-89.0444,"dy":0.0017,"dx":0.0017,"nx":28,"ny":28,"refTime":"2024-10-16T09:00:00:Z","depth":0,"parameterNumber":2,"parameterNumberName":"U-component_of_WINDS"},"data":[0,0,0,0,0,0,0,0,0,0,0,0,0,0,0,0,0,0,0,0,0,0,0,0,0,0,0,0,0,0,0,0,0,0,0,0,0,0,0,0,0,0,0,0,0,0,0,0,0,0,0,0,0,0,0,0,0,0,-2.032,-2.032,0,-2.0359,-2.0359,-2.036,-2.0317,-2.0316,-2.0314,-2.0313,-2.035,-2.0353,-2.0355,0,0,0,0,0,0,0,0,0,0,0,0,0,-2.0206,-2.0208,-2.032,-2.032,-2.0321,-2.0359,-2.0359,-2.036,-2.0318,-2.0316,-2.0314,-2.0312,-2.0349,-2.0352,-2.0355,0,0,0,0,0,0,0,0,0,0,0,0,0,-2.0251,-2.0209,-2.032,-2.0304,-2.0303,-2.0359,-2.0359,-2.036,-2.0318,-2.0316,-2.0313,-2.0311,-2.0348,-2.0352,-2.0356,-2.0427,0,0,-2.0367,-2.0369,0,0,0,0,0,0,0,0,-2.0249,-2.0256,-2.0306,-2.0306,-2.0305,-2.0331,-2.0333,-2.0383,-2.0319,-2.0312,-2.0313,-2.031,-2.0346,-2.0349,-2.0362,-2.0429,-2.0431,-2.0368,-2.037,-2.0372,-2.0373,0,0,0,0,0,0,0,-2.0246,-2.0254,-2.0335,-2.0307,-2.0306,-2.0295,-2.0298,-2.0342,-2.0342,-2.0313,-2.031,-2.0315,-2.0345,-2.0358,-2.0363,-2.0431,-2.0368,-2.0371,-2.0373,-2.0375,-2.0557,-2.056,0,0,0,0,0,0,-2.0245,-2.0251,-2.0334,-2.0336,-2.027,-2.0299,-2.0303,-2.0325,-2.0341,-2.0342,-2.0317,-2.0313,-2.0353,-2.0358,-2.0364,-2.0447,-2.0372,-2.0375,-2.0377,-2.0555,-2.0558,-2.0561,0,0,0,0,0,0,-2.0242,-2.0253,-2.0332,-2.0293,-2.0302,-2.0303,-2.0328,-2.0327,-2.0341,-2.0345,-2.0344,-2.0331,-2.0352,-2.0358,-2.0412,-2.0448,-2.0377,-2.038,-2.0552,-2.0556,-2.0559,-2.0616,0,0,0,0,0,0,-2.0239,-2.0252,-2.028,-2.0294,-2.0305,-2.0381,-2.033,-2.0329,-2.0347,-2.0342,-2.0358,-2.0358,-2.035,-2.0406,-2.0415,-2.0452,-2.0383,-2.0548,-2.0554,-2.0558,-2.0611,-2.0621,-2.063,0,0,0,0,0,-2.0235,-2.0294,-2.0282,-2.0292,-2.034,-2.0383,-2.0389,-2.0379,-2.0351,-2.0378,-2.038,-2.0358,-2.0443,-2.0412,-2.0422,-2.046,-2.0546,-2.0552,-2.0558,-2.0606,-2.0619,-2.063,0,0,0,0,0,0,-2.0284,-2.0296,-2.0282,-2.0347,-2.0365,-2.0376,-2.041,-2.0393,-2.0418,-2.0412,-2.0398,-2.0402,-2.0458,-2.0465,-2.043,-2.0529,-2.049,-2.0498,-2.0523,-2.0535,-2.0545,-2.0542,-2.0386,0,0,0,0,0,-2.0302,-2.0337,-2.0345,-2.0402,-2.0412,-2.041,-2.0428,-2.0419,-2.0436,-2.0443,-2.0449,-2.0466,-2.0496,-2.0516,-2.0544,-2.0612,-2.0614,-2.0643,-2.0653,-2.0661,-2.0667,-2.0702,-2.0714,-2.058,-2.058,-2.058,0,0,-2.034,-2.0351,-2.0374,-2.0412,-2.0424,-2.046,-2.0416,-2.0456,-2.0481,-2.0448,-2.0499,-2.0504,-2.0522,-2.0582,-2.0609,-2.0589,-2.0705,-2.0668,-2.0674,-2.0677,-2.0709,-2.0722,-2.0733,-2.0584,-2.0583,-2.0583,0,0,-2.0427,-2.044,-2.0488,-2.0501,-2.052,-2.0518,-2.053,-2.0544,-2.0546,-2.0597,-2.0573,-2.0602,-2.0655,-2.0668,-2.0682,-2.0773,-2.0753,-2.0783,-2.0833,-2.0867,-2.0878,-2.0887,-2.0918,-2.093,-2.079,-2.079,-2.079,0,-2.0472,-2.0525,-2.0514,-2.0556,-2.0572,-2.0545,-2.0592,-2.0606,-2.0633,-2.0645,-2.0622,-2.0687,-2.0697,-2.0759,-2.0781,-2.0794,-2.0805,-2.0781,-2.0877,-2.0886,-2.0895,-2.0924,-2.0936,-2.0794,-2.0793,-2.0793,-2.0792,0,-2.0578,-2.0615,-2.0652,-2.0679,-2.07,-2.0744,-2.0739,-2.0761,-2.075,-2.075,-2.0801,-2.0812,-2.0842,-2.0856,-2.0846,-2.0916,-2.0903,-2.088,-2.0839,-2.0911,-2.0939,-2.095,-2.0798,-2.0797,-2.0796,-2.0795,0,0,-2.0697,-2.0717,-2.0731,-2.0742,-2.0761,-2.0789,-2.0831,-2.0861,-2.0879,-2.0899,-2.0933,-2.0978,-2.0956,-2.0971,-2.0962,-2.0992,-2.1062,-2.0964,-2.0964,-2.0981,-2.1139,-2.1156,-2.1169,-2.1049,-2.1051,-2.1052,-2.1137,0,-2.0783,-2.0857,-2.0849,-2.0919,-2.0952,-2.0926,-2.0963,-2.0978,-2.0979,-2.1006,-2.1007,-2.1039,-2.1008,-2.1017,-2.1046,-2.1047,-2.1093,-2.1041,-2.1079,-2.108,-2.1074,-2.1183,-2.1202,-2.1281,-2.1147,-2.1149,-2.1151,0,-2.0894,-2.0918,-2.0992,-2.1004,-2.1018,-2.1051,-2.1076,-2.1104,-2.1119,-2.1118,-2.1135,-2.112,-2.1161,-2.1121,-2.1177,-2.1141,-2.1156,-2.1159,-2.1162,-2.1164,-2.1119,-2.1187,-2.1306,-2.1317,-2.1168,-2.1166,-2.1165,0,-2.0971,-2.1022,-2.1072,-2.1083,-2.1099,-2.1123,-2.1131,-2.1144,-2.1162,-2.1184,-2.1195,-2.1221,-2.1236,-2.1256,-2.1248,-2.122,-2.1305,-2.1264,-2.1303,-2.1304,-2.1322,-2.132,-2.1443,-2.1334,-2.1333,-2.1333,-2.1333,0,-2.1068,-2.1114,-2.1107,-2.1138,-2.1188,-2.1177,-2.1226,-2.1231,-2.1243,-2.1273,-2.1252,-2.1281,-2.127,-2.1297,-2.1292,-2.1338,-2.1344,-2.1343,-2.1341,-2.1345,-2.1345,-2.1353,-2.1347,-2.1336,-2.1336,-2.1335,-2.1335,0,-2.1163,-2.116,-2.1213,-2.1224,-2.1228,-2.1264,-2.1273,-2.1301,-2.1301,-2.1339,-2.1348,-2.1346,-2.1378,-2.1372,-2.1407,-2.1403,-2.146,-2.1452,-2.1455,-2.1452,-2.1492,-2.1488,-2.1623,-2.164,-2.1521,-2.1522,-2.1523,0,-2.1224,-2.1259,-2.1273,-2.1292,-2.1302,-2.1333,-2.1351,-2.1341,-2.136,-2.1381,-2.1406,-2.1436,-2.1459,-2.151,-2.1512,-2.1538,-2.1529,-2.1575,-2.1533,-2.1535,-2.1528,-2.1525,-2.1528,-2.1582,-2.1584,-2.1585,-2.1586,0,-2.1333,-2.133,-2.1357,-2.1383,-2.1405,-2.1425,-2.1443,-2.146,-2.1451,-2.1474,-2.1506,-2.1524,-2.1559,-2.1588,-2.1612,-2.1619,-2.1601,-2.1599,-2.1609,-2.1613,-2.1613,-2.1612,-2.1476,-2.1596,-2.1595,-2.1594,-2.1594,-2.1593,-2.1412,-2.1441,-2.1455,-2.1486,-2.1498,-2.1515,-2.1542,-2.1545,-2.1572,-2.16,-2.1592,-2.1628,-2.1642,-2.1672,-2.1682,-2.1709,-2.1692,-2.1707,-2.1711,-2.1714,-2.1718,-2.1609,-2.1714,-2.1713,-2.1713,-2.1713,-2.1713,0,-2.1518,-2.1526,-2.1554,-2.158,-2.1604,-2.1585,-2.1604,-2.1624,-2.1656,-2.1671,-2.1694,-2.173,-2.1758,-2.1762,-2.1788,-2.1809,-2.1801,-2.1816,-2.1814,-2.1815,-2.1733,-2.1721,-2.1822,-2.1822,-2.1822,-2.1822,-2.1822,-2.1822,-2.1576,-2.1624,-2.1622,-2.1675,-2.1683,-2.1718,-2.173,-2.1745,-2.1757,-2.1798,-2.1821,-2.1824,-2.1834,-2.186,-2.1885,-2.1885,-2.1895,-2.1913,-2.191,-2.1832,-2.1821,-2.1811,-2.1799,-2.1915,-2.1915,-2.199,-2.199,-2.1991]},{"header":{"parameterUnit":"m.s-1","parameterCategory":1,"la1":30.2991,"la2":30.254,"lo1":-89.0895,"lo2":-89.0444,"dy":0.0017,"dx":0.0017,"nx":28,"ny":28,"refTime":"2024-10-16T09:00:00:Z","depth":0,"parameterNumber":3,"parameterNumberName":"V-component_of_WINDS"},"data":[0,0,0,0,0,0,0,0,0,0,0,0,0,0,0,0,0,0,0,0,0,0,0,0,0,0,0,0,0,0,0,0,0,0,0,0,0,0,0,0,0,0,0,0,0,0,0,0,0,0,0,0,0,0,0,0,0,0,-3.0917,-3.0917,0,-3.0995,-3.0996,-3.0997,-3.0998,-3.0997,-3.0996,-3.0995,-3.1071,-3.1074,-3.1077,0,0,0,0,0,0,0,0,0,0,0,0,0,-3.0763,-3.0766,-3.0916,-3.0917,-3.0918,-3.0995,-3.0996,-3.0997,-3.0998,-3.0997,-3.0996,-3.0995,-3.107,-3.1073,-3.1077,0,0,0,0,0,0,0,0,0,0,0,0,0,-3.0834,-3.0767,-3.0916,-3.0929,-3.093,-3.0995,-3.0996,-3.0997,-3.0999,-3.0997,-3.0996,-3.0994,-3.1069,-3.1073,-3.1077,-3.1133,0,0,-3.1091,-3.1093,0,0,0,0,0,0,0,0,-3.083,-3.084,-3.0926,-3.0928,-3.093,-3.0985,-3.0969,-3.1043,-3.0999,-3.0973,-3.0995,-3.0994,-3.1043,-3.105,-3.1067,-3.1137,-3.114,-3.1091,-3.1094,-3.1096,-3.1097,0,0,0,0,0,0,0,-3.0825,-3.0836,-3.0947,-3.0927,-3.093,-3.0928,-3.0937,-3.0983,-3.1015,-3.0975,-3.0975,-3.0985,-3.1044,-3.1063,-3.1069,-3.1141,-3.1091,-3.1095,-3.1098,-3.1099,-3.1258,-3.126,0,0,0,0,0,0,-3.0819,-3.0832,-3.0945,-3.095,-3.0876,-3.0932,-3.0942,-3.0969,-3.1014,-3.102,-3.0986,-3.0984,-3.1056,-3.1064,-3.1072,-3.1139,-3.1096,-3.11,-3.1102,-3.1256,-3.1258,-3.126,0,0,0,0,0,0,-3.0815,-3.0829,-3.0942,-3.0891,-3.0906,-3.0937,-3.0967,-3.0971,-3.099,-3.1023,-3.1028,-3.1,-3.1056,-3.1066,-3.1118,-3.1141,-3.1102,-3.1106,-3.1255,-3.1257,-3.1259,-3.1274,0,0,0,0,0,0,-3.0811,-3.0828,-3.085,-3.0892,-3.0908,-3.0988,-3.0969,-3.0974,-3.0998,-3.0997,-3.1037,-3.1042,-3.1055,-3.1111,-3.1122,-3.1147,-3.1109,-3.1253,-3.1256,-3.1259,-3.1271,-3.1276,-3.1281,0,0,0,0,0,-3.0805,-3.085,-3.0851,-3.0865,-3.0938,-3.0989,-3.0998,-3.1014,-3.1,-3.1022,-3.1043,-3.1041,-3.1138,-3.1117,-3.1129,-3.1155,-3.1251,-3.1255,-3.1258,-3.1269,-3.1275,-3.128,0,0,0,0,0,0,-3.0809,-3.0856,-3.0858,-3.0918,-3.095,-3.0989,-3.1018,-3.102,-3.1055,-3.1052,-3.1069,-3.1077,-3.1129,-3.1147,-3.1123,-3.121,-3.1192,-3.1199,-3.1196,-3.1203,-3.1207,-3.1201,-3.1113,0,0,0,0,0,-3.0817,-3.0857,-3.0895,-3.0944,-3.0961,-3.0987,-3.101,-3.1019,-3.1052,-3.1065,-3.1089,-3.112,-3.1157,-3.1181,-3.1217,-3.1274,-3.1282,-3.1298,-3.1303,-3.1307,-3.1311,-3.1341,-3.1348,-3.1272,-3.1272,-3.1272,0,0,-3.0834,-3.0864,-3.0888,-3.0946,-3.0972,-3.1011,-3.0998,-3.104,-3.1068,-3.1071,-3.1121,-3.114,-3.1176,-3.123,-3.1255,-3.1247,-3.1334,-3.1311,-3.1314,-3.1317,-3.1345,-3.1353,-3.1359,-3.1274,-3.1274,-3.1274,0,0,-3.0883,-3.0912,-3.0955,-3.0981,-3.1021,-3.1038,-3.1048,-3.1088,-3.1101,-3.1153,-3.1155,-3.1188,-3.1253,-3.1277,-3.1298,-3.1357,-3.1356,-3.1368,-3.1392,-3.1421,-3.1427,-3.1432,-3.1451,-3.1458,-3.1373,-3.1373,-3.1373,0,-3.0898,-3.0959,-3.0976,-3.1019,-3.1043,-3.1049,-3.1092,-3.1116,-3.1165,-3.1181,-3.1171,-3.1251,-3.1275,-3.1335,-3.1349,-3.1367,-3.1377,-3.1363,-3.1425,-3.143,-3.1436,-3.1454,-3.1461,-3.1374,-3.1374,-3.1374,-3.1374,0,-3.0974,-3.1016,-3.1046,-3.1094,-3.1122,-3.1164,-3.1187,-3.1213,-3.1219,-3.1237,-3.1288,-3.1318,-3.1359,-3.1374,-3.1381,-3.1435,-3.1428,-3.1422,-3.1404,-3.1444,-3.1461,-3.1468,-3.1376,-3.1375,-3.1375,-3.1375,0,0,-3.1027,-3.1085,-3.1096,-3.1117,-3.1161,-3.1193,-3.1235,-3.1277,-3.1298,-3.1331,-3.1365,-3.142,-3.1414,-3.1438,-3.1447,-3.1473,-3.1515,-3.1463,-3.1464,-3.147,-3.1574,-3.1577,-3.1585,-3.1515,-3.1517,-3.1518,-3.157,0,-3.108,-3.1156,-3.1173,-3.1237,-3.1275,-3.1281,-3.1317,-3.1347,-3.1365,-3.1398,-3.1416,-3.1454,-3.1445,-3.1459,-3.1485,-3.1504,-3.1536,-3.1501,-3.1545,-3.1546,-3.1534,-3.1594,-3.1598,-3.1646,-3.1577,-3.1578,-3.1579,0,-3.1152,-3.1188,-3.1256,-3.1295,-3.1311,-3.1344,-3.1383,-3.1415,-3.1449,-3.146,-3.1486,-3.1493,-3.1535,-3.1516,-3.1573,-3.1549,-3.1568,-3.1581,-3.1583,-3.1586,-3.1564,-3.1597,-3.1662,-3.1668,-3.1591,-3.159,-3.1589,0,-3.1181,-3.1247,-3.1296,-3.1315,-3.1361,-3.1384,-3.1404,-3.1436,-3.146,-3.1494,-3.1509,-3.1547,-3.1568,-3.1596,-3.1612,-3.1597,-3.1667,-3.165,-3.1675,-3.1675,-3.1688,-3.1687,-3.1754,-3.1704,-3.1703,-3.1703,-3.1703,0,-3.1237,-3.1278,-3.131,-3.134,-3.1386,-3.1405,-3.1449,-3.1469,-3.1497,-3.153,-3.1538,-3.1568,-3.1588,-3.1621,-3.1634,-3.1678,-3.1687,-3.1696,-3.1698,-3.1694,-3.1692,-3.1705,-3.1701,-3.1705,-3.1705,-3.1704,-3.1704,0,-3.1277,-3.13,-3.1354,-3.1394,-3.1405,-3.1437,-3.147,-3.1499,-3.1517,-3.1558,-3.1568,-3.1596,-3.1634,-3.1654,-3.1702,-3.171,-3.1759,-3.1761,-3.1748,-3.1749,-3.1772,-3.1769,-3.1849,-3.186,-3.1803,-3.1804,-3.1804,0,-3.131,-3.1342,-3.1386,-3.1409,-3.143,-3.1467,-3.1492,-3.1511,-3.1536,-3.1577,-3.16,-3.1639,-3.1672,-3.1733,-3.1756,-3.1792,-3.1794,-3.1819,-3.1799,-3.1793,-3.1792,-3.1789,-3.1791,-3.1822,-3.1823,-3.1823,-3.1823,0,-3.1366,-3.1376,-3.1412,-3.1452,-3.1482,-3.1514,-3.1545,-3.1563,-3.1587,-3.1615,-3.1655,-3.168,-3.173,-3.1768,-3.1806,-3.1825,-3.1827,-3.183,-3.1837,-3.1832,-3.1823,-3.1826,-3.1756,-3.1827,-3.1827,-3.1827,-3.1826,-3.1826,-3.1403,-3.1431,-3.1466,-3.1505,-3.1531,-3.156,-3.1589,-3.1611,-3.1645,-3.1688,-3.1697,-3.1739,-3.1771,-3.1822,-3.1843,-3.1875,-3.1869,-3.188,-3.1883,-3.1885,-3.1885,-3.182,-3.1882,-3.1882,-3.1882,-3.1882,-3.1882,0,-3.1457,-3.1481,-3.1517,-3.1561,-3.1591,-3.1594,-3.1628,-3.1653,-3.1691,-3.1721,-3.1753,-3.1798,-3.1835,-3.1862,-3.1899,-3.192,-3.1922,-3.1929,-3.1926,-3.193,-3.1889,-3.1878,-3.1926,-3.1926,-3.1926,-3.1926,-3.1926,-3.1926,-3.1489,-3.1537,-3.1551,-3.161,-3.1633,-3.1675,-3.1694,-3.1721,-3.1745,-3.1796,-3.1827,-3.1845,-3.1873,-3.1912,-3.1946,-3.1953,-3.1965,-3.1972,-3.1978,-3.1938,-3.1933,-3.1929,-3.1918,-3.1975,-3.1975,-3.2017,-3.2017,-3.2018]}]]